Regional Weather Roundup
Issued by NWS Sioux Falls, SD

Home | Current Version | Previous Version | Text Only | Print | Product List | Glossary On
Versions: 1 2 3 4 5 6 7 8 9 10 11 12 13 14 15 16 17 18 19 20 21 22 23 24 25 26 27 28 29 30 31 32 33 34 35 36 37 38 39 40 41 42 43 44 45 46 47 48 49 50
000
ASUS43 KFSD 020910
RWRFSD

WEATHER ROUNDUP FOR SE SOUTH DAKOTA/SW MINNESOTA/NW IOWA
NATIONAL WEATHER SERVICE SIOUX FALLS SD
400 AM CDT THU OCT 02 2014

NOTE: "FAIR" INDICATES FEW OR NO CLOUDS BELOW 12,000 FEET WITH NO
SIGNIFICANT WEATHER AND OR OBSTRUCTIONS TO VISIBILITY.


SDZ038>040-050-052>070-021000-
SOUTHEAST SOUTH DAKOTA

CITY           SKY/WX    TMP DP  RH WIND       PRES   REMARKS
CHAMBERLAIN    CLOUDY    51  49  93 CALM      29.92F
HURON          CLOUDY    49  47  93 W3        29.90S
MADISON        CLOUDY    54  54 100 N7        29.88S
MITCHELL       CLOUDY    54  48  80 NW8       29.90S
SIOUX FALLS    MOCLDY    54  48  80 N9        29.84F
WINNER         LGT RAIN  52  50  93 W6        29.95S
YANKTON        CLOUDY    55  48  76 NW16G22   29.85S
$$

MNZ071-072-080-081-089-090-097-098-021000-
SOUTHWEST MINNESOTA

CITY           SKY/WX    TMP DP  RH WIND       PRES   REMARKS
FAIRMONT       CLOUDY    54  50  87 NE3       29.82R VSB 1/2
JACKSON        FOG       57  55  94 N6        29.83S VSB 1/2
LUVERNE        PTCLDY    55  48  76 N6        29.84R
MARSHALL       CLEAR     46  43  87 NW8       29.84F
MONTEVIDEO     CLEAR     52  48  87 NW5       29.86R
PIPESTONE      CLEAR     52  46  82 N7        29.85S
REDWOOD FALLS  CLEAR     53  52  96 NW5       29.83S
TRACY          CLEAR     51  49  92 NW7       29.85S
WINDOM         CLEAR     54  52  94 N5        29.83S
WORTHINGTON    PTCLDY    52  48  87 N6        29.84S
$$

IAZ001>003-012>014-020>022-031-032-NEZ013-014-SDZ071-021000-
NORTHWEST IOWA

CITY           SKY/WX    TMP DP  RH WIND       PRES   REMARKS
CHEROKEE       MOCLDY    58  57  97 N6        29.78F
DENISON        FOG       63  63 100 CALM      29.76F VSB 1/2
ESTHERVILLE    PTCLDY    55  55 100 N7        29.80S
LE MARS        CLOUDY    57  54  88 N5        29.80F
ORANGE CITY    MOCLDY    57  50  77 NE7       29.80F
SHELDON        CLOUDY    55  52  88 NE7       29.81R
SIOUX CITY     CLOUDY    58  55  90 NW8       29.78F
SPENCER        CLOUDY    59  58  96 N10       29.80F
STORM LAKE     PTCLDY    59  59 100 CALM      29.79F FOG
$$

ABBREVIATIONS USED IN REMARKS
   TC - TEMPERATURE IN CELSIUS
  WCI - WIND CHILL INDEX
   HX - HEAT INDEX
  VSB - VISIBILITY



USA.gov is the U.S. government's official web portal to all federal, state and local government web resources and services.